OAL114 LIRA-LGAV

Flight info

Callsign OAL114
Flight time 1h 29m
Altitude 37000
Route SIPRO TEA MATED NOSTO UL612 ARA UB34 NEMES
Aircraft B737/M-VGDW/C

Departure

Time 2026-05-07 12:39
Airport Ciampino–G. B. Pastine International Airport (LIRA)

Arrival

Time 2026-05-07 14:08
Airport Athens Eleftherios Venizelos International Airport (LGAV)
Time Latitude Longitude Altitude Speed Heading
2026-05-07 12:16 41.79286 12.59633 402 ft 0 kts 52°
2026-05-07 12:26 41.79286 12.59632 405 ft 0 kts 52°
2026-05-07 12:26 41.79282 12.59625 403 ft 2 kts 51°
2026-05-07 12:27 41.79275 12.59614 402 ft 2 kts 51°
2026-05-07 12:27 41.79265 12.59596 404 ft 2 kts 49°
2026-05-07 12:27 41.79245 12.59591 405 ft 2 kts 320°
2026-05-07 12:27 41.79240 12.59597 405 ft 0 kts 320°
2026-05-07 12:30 41.79242 12.59595 405 ft 1 kts 320°
2026-05-07 12:30 41.79250 12.59586 405 ft 2 kts 320°
2026-05-07 12:30 41.79269 12.59567 405 ft 4 kts 322°
2026-05-07 12:30 41.79295 12.59540 405 ft 5 kts 322°
2026-05-07 12:31 41.79320 12.59513 405 ft 5 kts 322°
2026-05-07 12:31 41.79343 12.59490 405 ft 5 kts 322°
2026-05-07 12:31 41.79371 12.59460 405 ft 5 kts 322°
2026-05-07 12:31 41.79399 12.59431 405 ft 5 kts 321°
2026-05-07 12:32 41.79426 12.59401 405 ft 5 kts 321°
2026-05-07 12:32 41.79457 12.59395 405 ft 5 kts 27°
2026-05-07 12:32 41.79480 12.59430 405 ft 5 kts 50°
2026-05-07 12:32 41.79501 12.59464 405 ft 5 kts 50°
2026-05-07 12:33 41.79553 12.59534 405 ft 6 kts 18°
2026-05-07 12:33 41.79591 12.59519 404 ft 6 kts 333°
2026-05-07 12:33 41.79632 12.59491 404 ft 7 kts 333°
2026-05-07 12:34 41.79680 12.59458 405 ft 8 kts 333°
2026-05-07 12:34 41.79734 12.59422 406 ft 9 kts 333°
2026-05-07 12:34 41.79794 12.59381 406 ft 10 kts 333°
2026-05-07 12:34 41.79860 12.59335 406 ft 11 kts 332°
2026-05-07 12:35 41.79929 12.59286 406 ft 11 kts 333°
2026-05-07 12:35 41.80001 12.59238 406 ft 12 kts 333°
2026-05-07 12:35 41.80076 12.59185 406 ft 12 kts 332°
2026-05-07 12:35 41.80151 12.59132 406 ft 12 kts 332°
2026-05-07 12:36 41.80229 12.59079 406 ft 13 kts 333°
2026-05-07 12:36 41.80311 12.59022 405 ft 14 kts 333°
2026-05-07 12:36 41.80393 12.58965 404 ft 13 kts 333°
2026-05-07 12:36 41.80474 12.58910 406 ft 13 kts 333°
2026-05-07 12:37 41.80558 12.58853 406 ft 13 kts 333°
2026-05-07 12:37 41.80639 12.58797 405 ft 13 kts 333°
2026-05-07 12:37 41.80720 12.58766 407 ft 12 kts 22°
2026-05-07 12:37 41.80763 12.58860 417 ft 12 kts 69°
2026-05-07 12:38 41.80728 12.58937 415 ft 9 kts 153°
2026-05-07 12:38 41.80715 12.58945 418 ft 0 kts 153°
2026-05-07 12:38 41.80692 12.58961 412 ft 13 kts 153°
2026-05-07 12:38 41.80422 12.59148 413 ft 81 kts 152°
2026-05-07 12:39 41.79707 12.59643 413 ft 147 kts 153°
2026-05-07 12:39 41.78721 12.60307 861 ft 160 kts 152°
2026-05-07 12:39 41.77686 12.60928 1546 ft 166 kts 172°
2026-05-07 12:39 41.76584 12.60555 2234 ft 168 kts 216°
2026-05-07 12:40 41.75765 12.59306 2477 ft 196 kts 246°
2026-05-07 12:40 41.75233 12.57516 2790 ft 216 kts 250°
2026-05-07 12:40 41.74694 12.55591 3298 ft 224 kts 250°
2026-05-07 12:40 41.74149 12.53624 3933 ft 226 kts 250°
2026-05-07 12:41 41.73598 12.51642 4713 ft 226 kts 248°
2026-05-07 12:41 41.72725 12.49921 5495 ft 225 kts 220°
2026-05-07 12:41 41.71507 12.48589 6269 ft 228 kts 219°
2026-05-07 12:41 41.70272 12.47235 7032 ft 230 kts 220°
2026-05-07 12:42 41.69033 12.45868 7892 ft 230 kts 220°
2026-05-07 12:42 41.67767 12.44536 8742 ft 236 kts 210°
2026-05-07 12:42 41.66107 12.44030 9087 ft 266 kts 173°
2026-05-07 12:42 41.64396 12.45062 9838 ft 280 kts 138°
2026-05-07 12:43 41.63373 12.47281 10657 ft 287 kts 104°
2026-05-07 12:43 41.63399 12.49948 11458 ft 294 kts 72°
2026-05-07 12:43 41.64358 12.52384 12238 ft 300 kts 59°
2026-05-07 12:43 41.65435 12.54814 12955 ft 307 kts 60°
2026-05-07 12:44 41.66532 12.57297 13743 ft 313 kts 60°
2026-05-07 12:44 41.67653 12.59827 14474 ft 319 kts 59°
2026-05-07 12:44 41.68790 12.62397 15220 ft 324 kts 61°
2026-05-07 12:44 41.69563 12.65237 15841 ft 332 kts 82°
2026-05-07 12:45 41.69835 12.68416 16052 ft 357 kts 87°
2026-05-07 12:45 41.70029 12.71841 16322 ft 378 kts 87°
2026-05-07 12:45 41.70244 12.75399 16913 ft 388 kts 86°
2026-05-07 12:45 41.70489 12.79027 17660 ft 393 kts 86°
2026-05-07 12:46 41.70724 12.82652 18388 ft 398 kts 90°
2026-05-07 12:46 41.70467 12.86341 19006 ft 399 kts 103°
2026-05-07 12:46 41.69940 12.90001 19727 ft 402 kts 104°
2026-05-07 12:46 41.69374 12.93691 20410 ft 406 kts 105°
2026-05-07 12:47 41.68807 12.97416 21051 ft 411 kts 105°
2026-05-07 12:47 41.68250 13.01181 21748 ft 414 kts 104°
2026-05-07 12:47 41.67702 13.04979 22416 ft 418 kts 104°
2026-05-07 12:47 41.67154 13.08830 23064 ft 423 kts 104°
2026-05-07 12:48 41.66603 13.12719 23636 ft 428 kts 104°
2026-05-07 12:48 41.66047 13.16647 24111 ft 433 kts 104°
2026-05-07 12:48 41.65483 13.20624 24592 ft 437 kts 104°
2026-05-07 12:48 41.64910 13.24637 25091 ft 442 kts 105°
2026-05-07 12:49 41.64242 13.28661 25543 ft 443 kts 113°
2026-05-07 12:49 41.62885 13.32305 25970 ft 437 kts 129°
2026-05-07 12:49 41.61176 13.35667 26506 ft 439 kts 130°
2026-05-07 12:49 41.59443 13.38983 26939 ft 443 kts 131°
2026-05-07 12:50 41.57672 13.42378 27355 ft 449 kts 130°
2026-05-07 12:50 41.55893 13.45828 27777 ft 453 kts 130°
2026-05-07 12:50 41.54112 13.49321 28227 ft 457 kts 130°
2026-05-07 12:50 41.52323 13.52852 28653 ft 461 kts 130°
2026-05-07 12:51 41.50518 13.56421 29059 ft 466 kts 130°
2026-05-07 12:51 41.48695 13.60025 29439 ft 470 kts 130°
2026-05-07 12:51 41.46858 13.63650 29858 ft 473 kts 130°
2026-05-07 12:51 41.45006 13.67296 30228 ft 476 kts 131°
2026-05-07 12:52 41.43140 13.70955 30569 ft 479 kts 131°
2026-05-07 12:52 41.41257 13.74629 30921 ft 481 kts 131°
2026-05-07 12:52 41.39363 13.78315 31257 ft 483 kts 131°
2026-05-07 12:52 41.37456 13.82025 31564 ft 487 kts 130°
2026-05-07 12:53 41.35539 13.85755 31880 ft 489 kts 130°
2026-05-07 12:53 41.33620 13.89491 32270 ft 489 kts 131°
2026-05-07 12:53 41.31703 13.93215 32714 ft 487 kts 131°
2026-05-07 12:53 41.29841 13.97000 33131 ft 491 kts 126°
2026-05-07 12:54 41.28349 14.01051 33444 ft 498 kts 118°
2026-05-07 12:54 41.27048 14.05328 33803 ft 499 kts 116°
2026-05-07 12:54 41.25793 14.09633 34116 ft 500 kts 116°
2026-05-07 12:54 41.24547 14.13945 34389 ft 500 kts 116°
2026-05-07 12:55 41.23288 14.18262 34669 ft 501 kts 116°
2026-05-07 12:55 41.22012 14.22578 34928 ft 502 kts 116°
2026-05-07 12:55 41.20717 14.26904 35189 ft 503 kts 117°
2026-05-07 12:55 41.19410 14.31228 35446 ft 504 kts 117°
2026-05-07 12:56 41.18115 14.35491 35661 ft 506 kts 117°
2026-05-07 12:56 41.16794 14.39824 35868 ft 507 kts 117°
2026-05-07 12:56 41.15462 14.44183 36051 ft 510 kts 117°
2026-05-07 12:56 41.14125 14.48554 36203 ft 513 kts 117°
2026-05-07 12:57 41.12780 14.52948 36358 ft 516 kts 117°
2026-05-07 12:57 41.11428 14.57362 36579 ft 517 kts 117°
2026-05-07 12:57 41.10070 14.61791 36827 ft 517 kts 117°
2026-05-07 12:57 41.08712 14.66215 37001 ft 519 kts 117°
2026-05-07 12:58 41.05972 14.75110 36984 ft 523 kts 117°
2026-05-07 12:58 41.03223 14.84015 36970 ft 519 kts 117°
2026-05-07 12:59 41.00490 14.92836 36973 ft 516 kts 117°
2026-05-07 12:59 40.97775 15.01564 36986 ft 516 kts 117°
2026-05-07 13:00 40.95030 15.10353 36975 ft 516 kts 117°
2026-05-07 13:00 40.92280 15.19137 36990 ft 517 kts 117°
2026-05-07 13:01 40.89536 15.27871 36983 ft 518 kts 117°
2026-05-07 13:01 40.86761 15.36674 36987 ft 519 kts 117°
2026-05-07 13:02 40.83974 15.45490 36996 ft 521 kts 117°
2026-05-07 13:02 40.81171 15.54327 36979 ft 522 kts 117°
2026-05-07 13:03 40.78358 15.63171 36984 ft 522 kts 117°
2026-05-07 13:03 40.75536 15.72011 37001 ft 523 kts 117°
2026-05-07 13:04 40.72722 15.80797 37004 ft 523 kts 117°
2026-05-07 13:04 40.69882 15.89637 36999 ft 524 kts 117°
2026-05-07 13:05 40.67033 15.98477 37012 ft 524 kts 117°
2026-05-07 13:05 40.64176 16.07312 37018 ft 525 kts 117°
2026-05-07 13:06 40.61313 16.16149 37024 ft 524 kts 117°
2026-05-07 13:06 40.58737 16.25155 37034 ft 527 kts 112°
2026-05-07 13:07 40.56382 16.34232 37067 ft 528 kts 112°
2026-05-07 13:07 40.54001 16.43381 37084 ft 528 kts 112°
2026-05-07 13:08 40.51573 16.52507 37126 ft 528 kts 113°
2026-05-07 13:08 40.49130 16.61568 37126 ft 530 kts 113°
2026-05-07 13:09 40.46655 16.70707 37122 ft 530 kts 113°
2026-05-07 13:09 40.44180 16.79824 37115 ft 530 kts 113°
2026-05-07 13:10 40.41701 16.88930 37096 ft 529 kts 113°
2026-05-07 13:10 40.39216 16.98025 37074 ft 529 kts 113°
2026-05-07 13:11 40.36725 17.07108 37040 ft 528 kts 113°
2026-05-07 13:11 40.34244 17.16121 37045 ft 528 kts 113°
2026-05-07 13:12 40.31742 17.25180 37046 ft 528 kts 113°
2026-05-07 13:12 40.29232 17.34237 37047 ft 528 kts 113°
2026-05-07 13:13 40.26714 17.43287 37053 ft 529 kts 113°
2026-05-07 13:13 40.24202 17.52284 37052 ft 529 kts 113°
2026-05-07 13:14 40.21659 17.61361 37057 ft 530 kts 113°
2026-05-07 13:14 40.19111 17.70425 37052 ft 531 kts 113°
2026-05-07 13:15 40.16565 17.79450 37060 ft 532 kts 112°
2026-05-07 13:15 40.13993 17.88535 37047 ft 533 kts 112°
2026-05-07 13:16 40.11409 17.97629 37060 ft 533 kts 112°
2026-05-07 13:16 40.08818 18.06717 37046 ft 533 kts 112°
2026-05-07 13:17 40.06660 18.14263 37055 ft 534 kts 112°
2026-05-07 13:17 40.03631 18.24817 37057 ft 533 kts 112°
2026-05-07 13:18 40.01466 18.32334 37053 ft 533 kts 112°
2026-05-07 13:18 39.98857 18.41366 37064 ft 532 kts 112°
2026-05-07 13:19 39.96243 18.50381 37069 ft 531 kts 112°
2026-05-07 13:19 39.93625 18.59382 37062 ft 530 kts 112°
2026-05-07 13:20 39.91006 18.68354 37066 ft 530 kts 112°
2026-05-07 13:20 39.88383 18.77311 37060 ft 529 kts 112°
2026-05-07 13:21 39.85754 18.86260 37064 ft 528 kts 112°
2026-05-07 13:21 39.83117 18.95189 37067 ft 528 kts 114°
2026-05-07 13:22 39.79563 19.03386 37063 ft 519 kts 133°
2026-05-07 13:22 39.74825 19.10393 37065 ft 515 kts 137°
2026-05-07 13:23 39.70390 19.17779 37067 ft 521 kts 130°
2026-05-07 13:23 39.66134 19.25421 37062 ft 522 kts 130°
2026-05-07 13:24 39.61856 19.33067 37066 ft 524 kts 130°
2026-05-07 13:24 39.57561 19.40730 37064 ft 526 kts 130°
2026-05-07 13:25 39.53249 19.48413 37065 ft 528 kts 130°
2026-05-07 13:25 39.48922 19.56106 37065 ft 529 kts 130°
2026-05-07 13:26 39.44607 19.63759 37062 ft 530 kts 130°
2026-05-07 13:26 39.40249 19.71468 37059 ft 530 kts 130°
2026-05-07 13:27 39.35884 19.79172 37065 ft 531 kts 130°
2026-05-07 13:27 39.31509 19.86873 37064 ft 531 kts 130°
2026-05-07 13:28 39.27134 19.94558 37067 ft 531 kts 130°
2026-05-07 13:28 39.22775 20.02195 37077 ft 531 kts 130°
2026-05-07 13:29 39.18385 20.09868 37070 ft 532 kts 130°
2026-05-07 13:29 39.13986 20.17538 37068 ft 532 kts 130°
2026-05-07 13:30 39.09577 20.25206 37077 ft 532 kts 130°
2026-05-07 13:30 39.05189 20.32822 37078 ft 532 kts 130°
2026-05-07 13:31 39.00767 20.40477 37087 ft 533 kts 130°
2026-05-07 13:31 38.96333 20.48135 37093 ft 533 kts 130°
2026-05-07 13:32 38.91920 20.55739 37099 ft 533 kts 130°
2026-05-07 13:32 38.87478 20.63375 37099 ft 534 kts 130°
2026-05-07 13:33 38.83016 20.71027 37099 ft 534 kts 130°
2026-05-07 13:33 38.78555 20.78658 37102 ft 534 kts 130°
2026-05-07 13:34 38.71879 20.90047 37096 ft 535 kts 130°
2026-05-07 13:35 38.67399 20.97665 37100 ft 535 kts 130°
2026-05-07 13:35 38.62901 21.05298 37074 ft 536 kts 130°
2026-05-07 13:36 38.58439 21.12852 37103 ft 536 kts 130°
2026-05-07 13:36 38.53940 21.20450 37102 ft 535 kts 130°
2026-05-07 13:37 38.49435 21.28041 37102 ft 536 kts 130°
2026-05-07 13:37 38.44917 21.35635 37095 ft 537 kts 130°
2026-05-07 13:38 38.40397 21.43215 37101 ft 537 kts 130°
2026-05-07 13:38 38.35894 21.50749 37098 ft 537 kts 130°
2026-05-07 13:39 38.31360 21.58319 37100 ft 537 kts 130°
2026-05-07 13:39 38.26821 21.65878 37103 ft 537 kts 130°
2026-05-07 13:40 38.22276 21.73429 37102 ft 537 kts 130°
2026-05-07 13:40 38.17725 21.80975 37115 ft 538 kts 130°
2026-05-07 13:41 38.13170 21.88507 37109 ft 537 kts 130°
2026-05-07 13:41 38.08610 21.96032 37104 ft 536 kts 130°
2026-05-07 13:42 38.04092 22.03471 37113 ft 534 kts 130°
2026-05-07 13:42 37.99549 22.10935 37122 ft 534 kts 130°
2026-05-07 13:43 37.95004 22.18383 37133 ft 535 kts 130°
2026-05-07 13:43 37.90424 22.25871 37146 ft 539 kts 130°
2026-05-07 13:43 37.88111 22.29644 36788 ft 545 kts 130°
2026-05-07 13:44 37.85782 22.33441 36222 ft 544 kts 130°
2026-05-07 13:44 37.83469 22.37211 35729 ft 541 kts 130°
2026-05-07 13:44 37.81168 22.40957 35202 ft 538 kts 130°
2026-05-07 13:44 37.78904 22.44638 34703 ft 534 kts 130°
2026-05-07 13:45 37.76628 22.48334 34216 ft 531 kts 130°
2026-05-07 13:45 37.74366 22.52002 33675 ft 527 kts 130°
2026-05-07 13:45 37.72119 22.55642 33121 ft 523 kts 130°
2026-05-07 13:45 37.70016 22.59376 32550 ft 522 kts 119°
2026-05-07 13:46 37.68465 22.63509 32053 ft 517 kts 114°
2026-05-07 13:46 37.67037 22.67657 31521 ft 513 kts 114°
2026-05-07 13:46 37.65638 22.71779 31008 ft 508 kts 114°
2026-05-07 13:46 37.64244 22.75840 30529 ft 502 kts 115°
2026-05-07 13:47 37.62842 22.79852 30035 ft 497 kts 115°
2026-05-07 13:47 37.61433 22.83823 29484 ft 492 kts 116°
2026-05-07 13:47 37.60031 22.87737 28935 ft 488 kts 116°
2026-05-07 13:47 37.58647 22.91581 28416 ft 488 kts 116°
2026-05-07 13:48 37.57246 22.95467 27896 ft 485 kts 116°
2026-05-07 13:48 37.55858 22.99319 27383 ft 480 kts 116°
2026-05-07 13:48 37.54487 23.03123 26942 ft 472 kts 115°
2026-05-07 13:48 37.53140 23.06858 26539 ft 463 kts 115°
2026-05-07 13:49 37.51820 23.10517 26132 ft 455 kts 115°
2026-05-07 13:49 37.50521 23.14112 25742 ft 446 kts 115°
2026-05-07 13:49 37.49243 23.17644 25356 ft 439 kts 115°
2026-05-07 13:49 37.48163 23.21216 24952 ft 434 kts 102°
2026-05-07 13:50 37.47901 23.24960 24584 ft 427 kts 85°
2026-05-07 13:50 37.48144 23.28610 24242 ft 421 kts 82°
2026-05-07 13:50 37.48455 23.32262 23835 ft 418 kts 82°
2026-05-07 13:50 37.48778 23.35886 23377 ft 415 kts 82°
2026-05-07 13:51 37.49096 23.39528 22899 ft 412 kts 82°
2026-05-07 13:51 37.49392 23.43059 22427 ft 409 kts 82°
2026-05-07 13:51 37.50033 23.46520 21936 ft 404 kts 69°
2026-05-07 13:51 37.51018 23.49812 21513 ft 400 kts 66°
2026-05-07 13:52 37.52067 23.53060 21020 ft 399 kts 65°
2026-05-07 13:52 37.53137 23.56304 20428 ft 400 kts 65°
2026-05-07 13:52 37.54217 23.59540 19852 ft 400 kts 65°
2026-05-07 13:52 37.55301 23.62757 19280 ft 395 kts 65°
2026-05-07 13:53 37.56362 23.65881 18726 ft 390 kts 65°
2026-05-07 13:53 37.57429 23.68995 18138 ft 385 kts 65°
2026-05-07 13:53 37.58488 23.72071 17513 ft 380 kts 65°
2026-05-07 13:53 37.59534 23.75112 16892 ft 375 kts 65°
2026-05-07 13:54 37.60563 23.78114 16289 ft 370 kts 65°
2026-05-07 13:54 37.61575 23.81086 15696 ft 366 kts 65°
2026-05-07 13:54 37.62569 23.84027 15136 ft 362 kts 65°
2026-05-07 13:54 37.63547 23.86946 14614 ft 361 kts 65°
2026-05-07 13:55 37.64514 23.89851 14055 ft 357 kts 65°
2026-05-07 13:55 37.65464 23.92733 13455 ft 354 kts 65°
2026-05-07 13:55 37.66401 23.95587 12837 ft 351 kts 65°
2026-05-07 13:55 37.67334 23.98421 12247 ft 347 kts 65°
2026-05-07 13:56 37.68266 24.01223 11648 ft 344 kts 65°
2026-05-07 13:56 37.69222 24.03978 11107 ft 340 kts 64°
2026-05-07 13:56 37.70168 24.06638 10642 ft 334 kts 64°
2026-05-07 13:56 37.71120 24.09283 10180 ft 328 kts 64°
2026-05-07 13:57 37.72115 24.11793 9983 ft 311 kts 54°
2026-05-07 13:57 37.73567 24.13683 9833 ft 292 kts 37°
2026-05-07 13:57 37.75164 24.15257 9633 ft 290 kts 36°
2026-05-07 13:57 37.76773 24.16785 9282 ft 288 kts 35°
2026-05-07 13:58 37.78384 24.18272 8944 ft 285 kts 34°
2026-05-07 13:58 37.79988 24.19728 8589 ft 283 kts 34°
2026-05-07 13:58 37.81586 24.21168 8242 ft 279 kts 34°
2026-05-07 13:58 37.83152 24.22564 7880 ft 272 kts 31°
2026-05-07 13:59 37.84893 24.23381 7514 ft 267 kts
2026-05-07 13:59 37.86751 24.23373 7189 ft 267 kts 355°
2026-05-07 13:59 37.88592 24.23219 6808 ft 269 kts 354°
2026-05-07 13:59 37.90458 24.23043 6403 ft 268 kts 354°
2026-05-07 14:00 37.92311 24.22865 5980 ft 266 kts 354°
2026-05-07 14:00 37.94148 24.22688 5550 ft 263 kts 354°
2026-05-07 14:00 37.95968 24.22514 5143 ft 261 kts 354°
2026-05-07 14:00 37.97769 24.22340 4775 ft 259 kts 354°
2026-05-07 14:01 37.99564 24.22168 4403 ft 258 kts 354°
2026-05-07 14:01 38.01352 24.22001 4060 ft 257 kts 354°
2026-05-07 14:01 38.03134 24.21837 4043 ft 257 kts 354°
2026-05-07 14:01 38.04930 24.21672 4010 ft 260 kts 354°
2026-05-07 14:02 38.06711 24.21454 3968 ft 258 kts 346°
2026-05-07 14:02 38.08371 24.20649 3788 ft 256 kts 326°
2026-05-07 14:02 38.09574 24.19057 3482 ft 247 kts 295°
2026-05-07 14:02 38.10047 24.17013 3236 ft 240 kts 277°
2026-05-07 14:03 38.10298 24.14920 3038 ft 233 kts 275°
2026-05-07 14:03 38.10324 24.13018 2958 ft 200 kts 249°
2026-05-07 14:03 38.09608 24.11686 2984 ft 173 kts 228°
2026-05-07 14:03 38.08825 24.10586 2972 ft 163 kts 224°
2026-05-07 14:04 38.08028 24.09586 2983 ft 164 kts 223°
2026-05-07 14:04 38.07179 24.08583 2994 ft 167 kts 220°
2026-05-07 14:04 38.06270 24.07635 2977 ft 171 kts 218°
2026-05-07 14:04 38.05328 24.06708 2786 ft 170 kts 216°
2026-05-07 14:05 38.04388 24.05805 2578 ft 168 kts 217°
2026-05-07 14:05 38.03494 24.04949 2393 ft 153 kts 216°
2026-05-07 14:05 38.02682 24.04174 2164 ft 140 kts 215°
2026-05-07 14:05 38.01925 24.03453 1973 ft 133 kts 216°
2026-05-07 14:06 38.01190 24.02752 1819 ft 134 kts 215°
2026-05-07 14:06 38.00438 24.02034 1655 ft 136 kts 215°
2026-05-07 14:06 37.99687 24.01317 1476 ft 134 kts 215°
2026-05-07 14:06 37.99180 24.00832 1324 ft 136 kts 215°
2026-05-07 14:07 37.98435 24.00121 1171 ft 138 kts 214°
2026-05-07 14:07 37.97673 23.99395 956 ft 134 kts 216°
2026-05-07 14:07 37.96928 23.98696 727 ft 132 kts 217°
2026-05-07 14:07 37.96210 23.98000 567 ft 125 kts 217°
2026-05-07 14:08 37.95507 23.97316 410 ft 131 kts 216°
2026-05-07 14:08 37.94769 23.96620 310 ft 133 kts 215°
2026-05-07 14:08 37.94075 23.95961 283 ft 106 kts 217°
2026-05-07 14:08 37.93657 23.95566 280 ft 47 kts 216°
2026-05-07 14:09 37.93491 23.95321 289 ft 27 kts 245°
2026-05-07 14:09 37.93452 23.95212 294 ft 6 kts 247°
2026-05-07 14:09 37.93450 23.95204 294 ft 1 kts 248°
2026-05-07 14:09 37.93464 23.95178 295 ft 9 kts 314°
2026-05-07 14:10 37.93517 23.95159 297 ft 9 kts 24°
2026-05-07 14:10 37.93568 23.95204 300 ft 10 kts 36°
2026-05-07 14:10 37.93639 23.95230 298 ft 11 kts 334°
2026-05-07 14:10 37.93690 23.95156 299 ft 11 kts 307°
2026-05-07 14:11 37.93748 23.95107 301 ft 9 kts
2026-05-07 14:11 37.93799 23.95121 301 ft 7 kts 316°
2026-05-07 14:11 37.93829 23.95072 302 ft 6 kts 306°
2026-05-07 14:11 37.93837 23.95059 300 ft 0 kts 306°